Location: Ciserano
(45.5833°N, 9.6000°E)
Time: 21:59:10
(UTC+00:00)

FALCON 9 DEB - Pass Details

Date: 20 June 2021
Orbit: 364 x 377 km, 53.0° (Epoch: 26 July)

Event Time Altitude Azimuth Distance (km) Brightness Sun altitude
Rises 00:55:39 0° 301° (WNW) 2,270 6.9 -17.8°
Reaches altitude 10° 00:57:55 10° 314° (NW) 1,414 6.0 -17.7°
Maximum altitude 01:00:40 26° 15° (NNE) 793 5.3 -17.5°
Drops below altitude 10° 01:03:24 10° 75° (ENE) 1,407 6.2 -17.3°
Sets 01:05:38 0° 89° (E) 2,256 7.1 -17.2°
